sat.trackr.live / text

‹ back to catalog

ONEWEB-0423

NORAD 51627 · 2022-012F

PAYLOAD ACTIVE UNKNOWN

§ Identity

Operator
Country
UK
Launch date
2022-02-10
Launch site
FRGUI
Launch vehicle
Mass (kg)
RCS (m²)

Purposes: comms

External: N2YO · Heavens-Above · Gunter

§ Orbital elements

Epoch: 2026-05-25T03:15:56.142144Z

Period
109.29 min
Inclination
87.9155°
Eccentricity
0.0001942
Mean motion
13.17648788 rev/d
Perigee alt
1,192.2 km
Apogee alt
1,195.2 km
Semi-major
7,571.9 km
B*
-6.1798e-5
RAAN
10.4475°
Arg perigee
84.2596°
Mean anomaly
275.8757°
Rev number
21,066

§ Raw data

ONEWEB-04231 51627U 22012F   26145.13606646 -.00000011  00000+0 -61798-4 0  99962 51627  87.9155  10.4475 0001942  84.2596 275.8757 13.17648788210668

JSON: /api/v1/satellites/51627 · /tle

For live sub-satellite position, see the globe view (requires WebGL).

§ Visibility from observer

Set your observer location to see the next 7 days of passes ≥ 10°. The values pass through the URL so the page stays shareable.

No JS? Fill the form by hand. The geolocation button needs JavaScript.